GFSNW_sfc_temp_276.txt.gz
Temp
56 56 57 57 57 56 54 48 46 56 57 47 38 41 48 55 54 54 54 52 52 50 48 46 44 45 44 46 47 43 40 38 35 34 36 39 36 34 34 28 27 20 19 30
55 55 56 56 56 55 48 46 45 54 57 40 39 43 50 52 52 52 52 51 53 51 49 45 46 45 44 45 45 44 43 37 33 31 32 36 34 35 33 29 26 22 23 33
55 55 55 56 56 55 49 45 43 47 46 43 43 43 46 48 52 53 53 51 51 48 46 46 45 44 44 44 45 53 48 36 38 35 37 36 33 35 33 33 22 24 28 35
55 55 55 55 55 55 51 48 42 42 39 42 42 43 45 46 47 50 51 47 51 51 44 44 45 42 41 43 49 42 43 38 34 37 39 37 38 37 33 30 33 35 34 33
55 55 54 55 54 54 52 47 42 40 39 42 42 42 43 46 47 49 47 47 51 49 48 50 49 45 42 44 38 40 38 38 33 36 36 36 36 37 35 35 33 33 31 36
55 54 54 54 54 53 50 48 44 45 41 39 39 40 45 48 47 49 50 50 48 45 50 48 44 46 45 45 42 39 38 36 33 33 33 35 35 36 35 33 33 39 35 43
55 55 54 54 54 52 50 50 45 42 38 38 41 44 46 47 47 46 47 47 47 45 46 48 48 45 43 43 39 41 35 34 29 27 32 29 42 37 39 39 40 38 38 39
56 55 54 54 54 53 49 50 48 45 35 41 42 44 44 44 43 43 44 44 44 44 45 39 38 38 40 37 37 37 38 33 24 29 29 39 41 37 38 38 43 44 43 43
55 55 54 54 53 53 48 49 51 47 44 41 47 45 45 42 39 40 42 43 44 45 38 33 32 33 38 34 33 36 36 34 29 22 27 32 43 39 41 39 38 43 45 40
55 55 54 54 53 53 45 47 51 48 43 45 45 42 43 45 41 40 37 41 41 42 29 28 29 35 39 37 34 31 28 25 26 24 25 35 43 42 41 35 43 40 41 37
55 55 54 53 53 52 46 45 50 47 44 45 48 48 44 43 42 40 41 41 40 31 30 30 34 33 36 36 37 34 33 28 24 24 25 34 42 41 42 47 41 41 39 38
55 55 54 53 53 52 48 45 49 49 45 43 47 46 47 47 48 44 39 41 40 40 34 31 33 33 31 35 35 34 35 39 33 35 39 45 42 45 45 44 45 42 39 39
54 54 54 53 53 52 47 42 46 47 43 45 45 44 46 47 48 49 41 38 44 42 41 35 29 34 33 30 33 38 38 39 37 39 45 44 45 47 44 45 46 44 42 41
54 54 53 53 52 52 46 38 41 45 44 38 39 46 44 46 47 48 48 47 44 43 39 33 29 31 38 36 38 38 42 40 38 37 45 47 49 46 48 47 44 45 43 42
54 53 53 53 52 50 41 38 39 44 42 34 38 41 41 43 45 49 48 46 43 39 34 30 32 34 36 33 34 34 40 43 41 42 50 50 51 47 46 44 45 44 44 41
54 53 53 52 52 47 39 31 41 42 44 38 30 39 37 40 40 43 45 46 44 43 39 33 35 37 37 27 30 44 45 47 50 54 47 49 50 48 47 48 48 45 44 44
53 53 52 52 50 39 35 34 39 46 43 37 31 30 34 36 39 38 38 42 40 42 39 38 41 41 40 27 38 51 51 49 49 48 45 47 49 52 47 47 46 46 43 42
53 52 51 50 49 44 36 37 47 45 39 39 33 33 31 34 30 30 33 27 34 37 37 36 37 37 36 33 46 50 50 52 55 57 55 53 59 47 49 46 44 44 43 41
52 51 49 43 38 33 36 47 47 42 38 32 32 30 28 33 27 28 30 30 25 30 32 34 37 33 32 39 44 49 48 50 53 57 58 55 49 51 51 45 44 44 45 40
50 44 37 31 35 46 48 41 33 35 34 36 32 33 29 30 26 23 25 26 24 27 30 31 32 36 44 45 44 46 50 53 54 51 51 51 44 46 46 44 49 48 50 43
39 35 32 39 47 40 37 26 24 20 25 32 34 35 33 32 27 26 28 25 28 29 29 25 25 23 33 37 40 44 47 50 53 55 57 57 54 55 50 45 45 44 44 43
39 39 40 38 33 32 27 24 23 27 25 30 33 34 36 33 31 28 32 31 31 27 32 29 27 28 35 37 39 40 42 43 45 48 51 55 54 52 50 48 45 44 46 44
38 33 28 28 25 23 22 18 23 23 28 31 34 31 33 31 30 31 32 28 28 33 29 28 25 32 36 37 38 39 41 41 42 43 44 46 50 54 53 52 50 52 44 43
28 25 20 21 16 20 21 25 27 32 35 35 36 31 28 31 31 33 30 32 31 27 25 27 28 31 34 35 37 37 38 39 40 40 42 42 44 46 48 48 52 44 43 41
24 24 21 16 24 24 27 30 34 36 38 36 33 32 33 31 31 32 31 28 26 28 27 31 33 33 32 33 36 36 38 39 39 40 40 40 41 43 44 45 45 44 43 39
23 19 18 23 25 24 26 32 33 36 37 37 34 31 29 28 30 25 26 27 25 24 32 35 36 34 32 34 36 37 39 41 41 41 41 41 40 40 42 43 41 40 40 38
16 15 23 25 25 27 24 32 31 31 34 26 31 27 28 29 28 29 31 26 30 34 35 37 37 35 33 36 39 41 41 40 40 42 42 41 41 39 39 38 39 38 38 37

GFSNW_sfc_temp_279.txt.gz
Temp
56 56 56 57 56 55 53 47 46 56 55 47 38 42 48 53 54 54 54 52 52 49 48 46 45 47 47 48 48 46 45 43 39 40 41 44 42 41 40 36 33 28 31 40
55 55 55 56 56 55 47 46 46 54 55 41 39 43 48 51 52 52 52 52 53 51 48 45 46 46 47 47 48 46 46 41 39 38 40 41 40 40 37 34 33 29 34 42
55 55 55 55 56 55 51 44 43 46 46 42 44 43 46 48 52 53 53 51 52 49 46 46 46 45 46 46 47 53 50 40 43 40 42 41 38 37 37 39 33 33 36 44
55 55 55 55 55 55 52 47 42 41 39 41 42 44 45 45 47 50 51 48 51 51 45 44 45 44 42 45 50 44 46 41 39 40 41 40 42 40 35 33 39 42 43 38
56 55 54 54 54 54 50 42 41 40 38 41 41 42 43 46 47 49 47 47 50 49 48 51 48 45 44 46 42 43 40 41 38 40 40 39 38 39 38 38 37 37 39 41
56 55 54 54 54 53 50 49 44 45 40 38 39 40 44 47 48 49 50 50 48 45 49 49 46 46 45 46 43 41 40 39 37 38 37 38 38 39 38 37 37 43 39 49
56 55 55 54 54 53 49 50 48 45 37 38 41 45 45 46 47 46 47 47 47 46 46 47 48 44 42 43 40 42 37 38 33 34 38 32 46 42 42 41 42 41 42 43
56 55 55 54 54 54 48 50 48 46 35 40 42 43 44 44 43 43 45 45 45 46 45 39 39 39 40 38 37 39 40 36 29 32 34 41 48 41 40 42 47 45 45 48
56 56 55 55 54 53 48 49 51 48 41 41 47 44 45 42 39 40 42 44 43 45 39 34 34 34 38 35 35 37 38 37 33 27 30 34 46 44 44 44 42 47 44 44
56 56 55 54 54 53 45 47 51 49 43 44 45 43 43 46 42 40 39 41 41 42 30 30 31 36 40 36 35 32 31 30 30 30 29 38 46 45 44 40 46 46 44 42
56 55 55 54 53 53 45 44 50 48 44 43 46 48 45 43 42 41 42 43 40 33 31 31 35 34 38 36 37 35 35 30 29 28 27 35 44 44 45 50 46 47 44 42
56 55 55 54 53 53 49 43 49 50 46 43 45 47 47 49 51 47 42 44 41 41 35 32 33 34 32 36 35 34 35 41 36 39 41 47 44 48 47 47 47 48 46 45
55 55 55 54 53 52 49 42 46 46 44 46 45 44 44 49 50 53 43 39 45 44 42 36 30 35 34 31 34 36 38 40 39 41 47 47 46 49 48 47 48 48 48 48
55 54 54 54 53 51 46 40 41 44 43 37 39 46 43 45 47 50 51 49 44 44 41 36 32 32 39 36 39 38 40 40 39 39 45 49 51 48 50 49 48 46 46 47
54 54 54 53 53 51 43 40 40 42 40 34 35 41 41 42 44 46 47 45 44 42 37 31 36 35 36 34 34 33 38 41 41 42 50 52 53 51 50 49 50 50 47 44
53 53 53 52 51 48 41 34 41 42 44 35 29 38 36 39 41 43 42 45 44 42 39 38 37 37 38 29 33 46 44 45 49 52 48 49 50 50 50 51 51 50 47 45
52 52 52 51 50 41 37 35 40 45 45 37 28 28 34 35 37 36 36 38 40 42 39 38 41 40 38 27 39 46 49 47 48 49 46 50 52 52 54 51 52 51 49 47
51 51 50 50 48 45 38 40 47 45 39 36 23 25 31 34 29 30 32 31 34 37 37 37 37 38 37 34 42 46 49 50 51 53 52 54 57 58 56 49 48 48 50 50
50 50 48 43 39 34 37 47 46 43 38 32 32 28 26 33 26 28 29 30 29 33 30 32 36 30 31 37 39 42 46 45 49 52 52 52 52 54 56 54 50 46 52 47
49 43 36 31 35 47 47 40 35 33 31 35 31 35 29 30 25 22 25 29 24 19 28 33 31 31 36 37 37 38 40 42 45 43 44 47 48 50 52 52 54 52 53 49
38 33 32 38 47 40 36 28 25 23 27 31 32 35 30 32 27 25 26 23 26 27 31 30 28 27 32 38 37 39 40 40 41 41 43 45 46 47 50 52 53 49 48 46
38 39 41 39 35 31 27 24 20 19 23 30 32 33 34 28 30 27 32 31 31 27 31 29 25 30 35 35 37 39 39 40 40 41 41 42 43 44 44 47 51 53 50 51
38 35 30 30 27 23 22 18 21 21 27 30 33 31 30 28 28 31 31 28 28 33 28 27 27 32 34 34 35 36 38 38 39 39 41 41 41 42 42 43 46 51 52 48
29 27 20 23 21 24 24 25 27 32 32 34 34 30 29 31 32 33 29 32 32 27 26 27 30 31 33 33 34 34 35 37 38 39 40 39 40 40 41 42 44 45 46 45
25 26 23 21 26 26 28 30 33 35 38 37 32 32 33 31 31 31 30 27 27 28 27 28 31 32 32 32 33 34 35 36 37 38 38 39 40 39 39 41 42 42 42 42
23 21 20 24 26 25 27 31 33 38 38 35 33 30 28 27 29 27 28 28 24 26 28 32 36 34 33 33 34 35 37 37 38 39 40 39 39 38 38 39 40 39 38 38
21 17 25 28 29 29 31 36 35 40 37 28 29 27 27 28 27 25 26 25 29 31 32 37 35 33 33 34 34 36 41 41 41 41 41 41 40 39 39 37 38 37 37 36

GFSNW_sfc_temp_285.txt.gz
Temp
57 57 57 57 57 55 56 69 62 74 77 65 69 65 69 60 69 70 68 68 67 66 66 64 64 64 65 65 65 60 65 62 57 57 55 56 57 58 59 50 50 53 49 52
57 56 56 56 56 55 68 66 69 74 74 60 63 66 63 65 66 67 67 66 69 70 65 60 65 64 58 60 62 62 63 60 54 50 52 54 52 56 58 55 53 49 47 57
57 56 56 55 56 55 61 65 59 65 67 70 65 64 62 61 67 68 69 68 69 66 64 67 62 62 57 58 61 55 59 61 59 53 56 59 50 51 54 55 50 52 55 60
57 56 55 55 55 55 60 64 61 63 57 61 63 66 63 61 60 66 68 65 65 64 60 63 61 65 57 57 57 59 61 57 62 62 62 57 57 57 51 47 56 53 59 60
57 56 56 55 55 55 57 61 59 62 59 59 61 57 59 59 63 65 61 61 66 66 63 65 63 66 64 63 58 59 61 57 57 56 62 58 53 56 56 54 54 55 57 56
57 56 55 55 54 54 58 66 64 61 54 59 57 58 59 61 65 67 68 66 64 63 67 71 72 70 68 68 62 58 58 57 54 51 56 54 50 55 56 57 58 58 53 63
58 57 56 55 54 54 55 63 65 59 52 55 57 59 61 60 63 61 65 65 64 64 68 68 67 66 64 65 62 65 58 57 54 50 56 41 62 60 58 60 60 61 59 61
57 57 56 56 55 54 57 59 60 60 51 58 58 58 58 61 62 60 62 62 63 68 65 58 54 55 56 58 59 57 60 59 44 46 49 57 61 59 53 53 59 64 62 63
57 56 56 56 55 54 58 58 58 60 55 53 62 58 60 57 58 59 59 59 65 62 59 53 47 47 54 52 48 53 54 56 51 48 41 42 57 57 59 58 52 62 60 61
57 57 56 56 55 54 57 57 59 56 51 59 60 56 57 63 62 58 59 55 54 58 50 48 48 50 61 51 49 44 46 47 40 46 44 53 66 58 58 50 55 62 62 62
57 57 56 56 55 55 54 55 58 52 51 58 58 61 58 60 60 54 58 55 54 49 45 49 51 52 57 55 59 50 46 41 41 46 43 41 60 55 54 63 62 62 64 63
56 56 56 56 55 55 54 51 57 53 48 54 59 61 63 61 59 61 60 59 58 60 52 55 58 53 56 55 49 60 51 57 52 52 53 64 62 65 66 61 61 63 62 64
55 55 55 55 55 54 52 51 53 50 47 49 53 53 62 62 61 66 56 58 61 58 60 58 52 48 58 50 53 57 59 64 54 58 63 64 67 67 67 66 63 65 65 63
55 55 55 55 55 54 52 47 51 53 51 43 51 58 59 61 61 61 62 59 58 58 55 48 48 46 58 54 57 55 61 60 57 58 63 65 67 67 68 67 65 63 65 65
55 54 54 54 54 53 49 47 48 50 47 42 48 52 55 55 56 56 58 58 57 54 48 46 45 56 54 55 53 52 60 58 55 55 66 64 66 68 66 64 63 65 64 63
54 54 54 53 52 49 43 37 45 47 47 45 39 51 48 50 51 53 53 55 54 53 50 49 54 55 53 46 48 59 63 64 64 61 67 67 67 66 68 65 66 66 65 66
54 54 53 52 50 45 40 39 46 49 49 41 37 41 46 49 50 49 49 51 47 49 47 44 47 46 48 45 44 57 61 63 63 65 64 60 63 62 67 68 68 66 67 66
54 53 51 50 48 45 41 46 48 50 44 44 34 36 41 48 42 40 44 41 43 43 43 42 43 49 46 39 52 57 59 61 61 63 65 65 65 64 64 64 63 61 62 64
53 51 48 43 40 37 41 48 48 46 43 33 34 35 34 45 41 42 39 42 36 43 38 40 44 42 36 46 52 55 58 57 59 61 58 58 57 58 60 60 60 58 59 60
47 43 35 32 37 49 48 41 38 37 37 39 33 45 37 44 40 37 37 38 39 33 41 46 38 41 51 55 56 57 57 55 55 51 51 55 55 54 54 54 55 55 55 55
38 32 33 39 48 41 35 31 30 32 31 35 40 44 38 45 38 36 39 34 36 31 39 36 35 36 46 54 56 59 54 55 55 54 54 53 52 51 51 51 53 53 54 53
38 37 38 38 34 31 28 28 31 30 31 39 39 42 45 41 43 38 35 34 34 30 40 33 31 41 50 50 51 54 54 53 52 52 51 52 52 52 51 51 51 52 53 53
42 35 32 31 30 24 24 21 26 29 36 37 39 34 37 35 37 36 34 31 31 41 31 31 39 49 47 49 51 51 52 51 50 50 51 51 51 52 52 50 52 52 51 51
32 30 25 28 25 29 31 34 35 39 40 38 38 34 36 36 33 34 30 35 34 28 27 32 44 47 48 50 51 50 48 49 49 49 49 49 49 49 50 50 51 50 49 50
31 31 26 27 38 40 42 44 41 40 43 40 38 36 36 34 32 34 34 29 28 31 35 43 49 49 50 49 48 48 48 49 49 49 48 48 49 47 47 48 48 48 48 48
32 31 31 37 35 34 40 38 36 42 41 42 40 33 31 30 33 30 30 30 30 36 43 49 50 50 49 48 49 49 50 50 49 50 50 49 49 48 48 47 47 45 44 44
27 27 33 37 38 35 36 42 40 44 38 33 33 30 30 34 31 30 37 34 42 45 48 49 49 47 47 49 49 48 49 49 49 50 50 49 50 50 48 46 46 43 43 43

GFSNW_sfc_temp_288.txt.gz
Temp
58 57 57 57 57 56 55 65 56 72 75 59 63 58 66 59 68 69 66 65 65 63 64 61 60 60 60 62 61 55 56 53 47 47 50 52 48 49 50 36 38 38 32 38
58 57 57 57 56 55 60 61 63 71 70 54 56 64 66 65 65 66 65 64 66 66 62 55 61 60 57 57 58 55 56 50 43 39 43 47 44 49 50 48 42 36 31 41
57 57 56 56 56 56 55 61 55 61 63 62 60 60 62 60 65 64 68 66 67 63 60 63 57 58 56 55 58 56 56 52 50 42 45 50 42 45 47 47 33 35 40 49
57 57 56 56 56 56 55 60 57 59 52 56 59 61 61 60 59 63 66 61 62 61 54 58 58 60 54 55 56 53 53 48 53 55 55 53 51 50 46 40 49 41 50 48
58 57 56 56 56 55 56 58 56 58 54 58 58 55 56 57 61 62 59 58 62 63 57 60 58 61 58 56 52 53 54 47 49 48 55 54 49 51 50 48 48 49 50 49
58 57 56 55 55 54 58 63 63 59 54 56 54 55 57 59 62 64 66 64 60 59 62 63 61 62 61 60 54 51 50 46 45 40 50 47 42 49 50 49 51 50 43 52
58 57 56 56 55 53 58 64 63 56 49 51 55 59 60 59 61 59 64 64 59 58 64 63 61 60 59 59 58 58 51 48 43 35 44 33 52 54 54 53 55 54 53 55
58 57 57 56 55 54 53 60 59 57 49 56 56 57 58 59 59 58 60 60 59 62 58 51 49 48 50 54 56 53 53 49 36 34 37 48 54 54 49 47 50 56 53 54
58 57 57 56 56 54 53 56 59 54 51 50 60 57 58 52 54 54 57 57 60 57 52 45 39 38 47 44 43 50 51 49 38 34 31 33 48 50 52 51 41 55 54 52
58 57 57 56 55 55 53 54 58 53 49 56 57 53 53 59 56 52 55 51 50 53 42 39 38 42 53 43 42 36 37 35 33 35 33 44 55 52 52 38 43 54 55 52
57 57 57 56 56 55 52 53 57 53 49 54 59 60 56 55 57 49 52 49 49 42 39 40 43 43 49 49 52 42 38 34 31 33 32 34 52 48 46 51 50 55 54 53
56 56 56 56 56 55 54 49 56 55 48 50 56 58 60 58 55 55 54 53 50 50 43 45 47 43 47 47 42 50 40 46 39 42 43 54 53 52 54 54 53 51 51 51
56 55 55 55 55 55 53 49 51 49 46 49 50 51 59 61 60 62 50 52 58 54 52 47 43 41 47 40 44 49 49 55 46 49 54 56 56 57 57 55 54 55 54 52
56 55 55 55 54 54 53 46 49 48 47 40 46 60 56 61 61 59 58 55 55 53 49 42 40 38 49 44 48 48 51 52 49 49 53 56 59 58 59 58 57 54 55 55
56 55 55 54 54 53 49 45 46 47 44 39 44 51 55 57 56 56 57 55 53 47 42 40 39 46 46 46 45 46 53 51 47 48 58 55 54 55 58 55 54 57 56 55
55 55 54 53 53 50 43 35 44 45 46 41 37 48 47 49 50 52 52 52 51 48 45 44 47 48 46 36 38 53 56 59 59 57 57 58 58 56 56 57 57 59 56 56
55 54 53 53 52 46 39 36 43 48 46 39 33 36 44 47 48 47 48 50 45 47 44 43 44 44 44 35 40 52 54 57 59 57 53 51 54 53 58 58 57 57 56 56
55 54 53 51 49 45 39 43 47 49 43 42 32 33 38 46 39 38 45 39 40 40 41 41 43 45 43 37 47 52 55 57 58 58 59 58 58 56 54 55 54 53 53 54
55 53 49 44 39 34 39 48 48 47 41 32 33 33 31 42 39 37 38 40 34 39 36 39 43 40 36 43 47 50 54 54 55 57 55 52 51 50 52 51 50 48 48 49
49 45 35 30 34 47 45 39 36 37 36 36 33 39 32 40 36 35 35 35 35 32 37 42 36 39 49 50 50 52 53 54 55 47 44 47 46 47 47 47 49 48 47 48
38 32 32 37 46 38 34 30 31 32 30 32 35 40 33 42 35 34 36 33 34 31 34 34 33 33 43 51 52 56 56 52 50 49 47 46 45 45 45 45 47 47 47 46
37 35 38 37 34 31 29 27 29 29 29 35 34 39 42 38 40 35 34 33 32 28 36 32 28 36 46 49 51 54 56 51 50 50 48 47 48 46 46 45 46 46 47 47
38 34 31 31 29 23 24 21 25 27 33 36 37 37 35 34 36 34 33 31 29 38 30 29 30 41 45 44 48 49 51 50 48 47 48 48 47 46 46 45 46 46 45 46
32 29 24 26 23 26 27 30 32 36 37 37 39 33 33 34 33 32 30 33 33 28 26 27 36 42 43 46 48 47 46 46 46 46 47 46 46 45 45 44 45 46 46 47
30 30 25 26 33 35 36 39 38 39 41 40 36 34 35 33 32 32 32 29 26 27 28 35 43 46 46 46 46 45 45 45 45 46 45 45 45 43 43 44 43 43 45 44
31 31 30 32 33 33 38 38 33 41 41 41 38 32 31 31 31 29 28 28 25 29 37 43 45 46 46 46 46 46 47 46 45 45 45 45 44 43 43 43 42 44 42 41
28 29 32 36 36 35 37 38 38 43 38 33 32 27 27 32 28 28 31 28 35 40 41 43 45 46 45 45 46 46 46 45 44 44 44 44 44 43 41 40 41 41 40 40